Grass Valley, CA

10:04 AM PDT on July 28, 2017 (GMT -0700)
Grass Valley

Weather History for KGOO - July, 2013

Change the Weather History Date:

Saturday, July 20, 2013

  Actual Average (KAUN) Record (KAUN)
Temperature  
Mean Temperature 83 °F -  
Max Temperature 93 °F 92 °F 108 °F (1960)
Min Temperature 73 °F 63 °F 51 °F (1986)
Cooling Degree Days 18    
Growing Degree Days 33 (Base 50)    
Moisture  
Dew Point 48 °F    
Average Humidity 30    
Maximum Humidity 41    
Minimum Humidity 20    
Precipitation  
Precipitation 0.00 in - - ()
Sea Level Pressure  
Sea Level Pressure 29.93 in    
Wind  
Wind Speed 1 mph (West)    
Max Wind Speed 7 mph    
Max Gust Speed -    
Visibility 10 miles    
Events      
Averages and records for this station are not official NWS values.
T = Trace of Precipitation, MM = Missing Value Source: NWS Daily Summary

Daily Weather History Graph

Daily Weather History Graph

Search for Another Location

Airport or City:

Trip Planner

Search our weather history database for the weather conditions in past years. The results will help you decide how hot, cold, wet, or windy it might be!

Date:

Astronomy

Jul. 20, 2013 Rise Set
Actual Time 5:54 AM PDT 8:26 PM PDT
Civil Twilight 5:23 AM PDT 8:56 PM PDT
Nautical Twilight 4:44 AM PDT 9:35 PM PDT
Astronomical Twilight 4:01 AM PDT 10:17 PM PDT
Moon 6:34 PM PDT (7/20) 3:39 AM PDT (7/20)
Length of Visible Light 15h 33m
Length of Day
14h 31m
Waxing Gibbous, 94% of the Moon is Illuminated
Jul 20
Waxing Gibbous
Jul 22
Full
Jul 29
Last Quarter
Aug 6
New
Aug 14
First Quarter

Hourly Weather History & Observations

Time (PDT) Temp. Heat Index Dew Point Humidity Pressure Visibility Wind Dir Wind Speed Gust Speed Precip Events Conditions
12:00 AM 77.0 °F - 46.4 °F 34% 29.97 in 10.0 mi Calm Calm - N/A   Clear
12:20 AM 75.2 °F - 44.6 °F 34% 29.97 in 10.0 mi Calm Calm - N/A   Clear
12:40 AM 75.2 °F - 44.6 °F 34% 29.97 in 10.0 mi Calm Calm - N/A   Clear
1:00 AM 75.2 °F - 44.6 °F 34% 29.97 in 10.0 mi Calm Calm - N/A   Clear
1:20 AM 77.0 °F - 42.8 °F 29% 29.97 in 10.0 mi Calm Calm - N/A   Clear
1:40 AM 75.2 °F - 44.6 °F 34% 29.96 in 10.0 mi Calm Calm - N/A   Clear
2:00 AM 75.2 °F - 44.6 °F 34% 29.96 in 10.0 mi Calm Calm - N/A   Clear
2:20 AM 75.2 °F - 44.6 °F 34% 29.96 in 10.0 mi Calm Calm - N/A   Clear
2:40 AM 75.2 °F - 44.6 °F 34% 29.96 in 10.0 mi Calm Calm - N/A   Clear
3:00 AM 75.2 °F - 44.6 °F 34% 29.96 in 10.0 mi Calm Calm - N/A   Clear
3:20 AM 73.4 °F - 44.6 °F 36% 29.96 in 10.0 mi Calm Calm - N/A   Clear
3:40 AM 75.2 °F - 44.6 °F 34% 29.95 in 10.0 mi Calm Calm - N/A   Clear
4:00 AM 73.4 °F - 44.6 °F 36% 29.95 in 10.0 mi Calm Calm - N/A   Clear
4:20 AM 75.2 °F - 44.6 °F 34% 29.94 in 10.0 mi Calm Calm - N/A   Clear
4:40 AM 75.2 °F - 44.6 °F 34% 29.94 in 10.0 mi Calm Calm - N/A   Clear
5:00 AM 75.2 °F - 44.6 °F 34% 29.94 in 10.0 mi Calm Calm - N/A   Clear
5:20 AM 75.2 °F - 46.4 °F 36% 29.94 in 10.0 mi Calm Calm - N/A   Clear
5:40 AM 73.4 °F - 46.4 °F 38% 29.94 in 10.0 mi Calm Calm - N/A   Clear
6:00 AM 73.4 °F - 46.4 °F 38% 29.94 in 10.0 mi Calm Calm - N/A   Clear
6:20 AM 75.2 °F - 46.4 °F 36% 29.94 in 10.0 mi Calm Calm - N/A   Clear
6:40 AM 75.2 °F - 46.4 °F 36% 29.94 in 10.0 mi Calm Calm - N/A   Clear
7:00 AM 75.2 °F - 48.2 °F 38% 29.94 in 10.0 mi Calm Calm - N/A   Clear
7:20 AM 75.2 °F - 50.0 °F 41% 29.94 in 10.0 mi Calm Calm - N/A   Clear
7:40 AM 77.0 °F - 50.0 °F 39% 29.94 in 10.0 mi Calm Calm - N/A   Clear
8:00 AM 78.8 °F - 50.0 °F 36% 29.94 in 10.0 mi Calm Calm - N/A   Clear
8:20 AM 80.6 °F - 46.4 °F 30% 29.95 in 10.0 mi Calm Calm - N/A   Clear
8:40 AM 80.6 °F - 46.4 °F 30% 29.95 in 10.0 mi Calm Calm - N/A   Clear
9:00 AM 80.6 °F - 46.4 °F 30% 29.95 in 10.0 mi NNW 3.5 mph - N/A   Clear
9:20 AM 80.6 °F - 48.2 °F 32% 29.95 in 10.0 mi Calm Calm - N/A   Clear
9:40 AM 82.4 °F - 50.0 °F 32% 29.95 in 10.0 mi Calm Calm - N/A   Clear
10:00 AM 82.4 °F - 46.4 °F 28% 29.95 in 10.0 mi WNW 4.6 mph - N/A   Clear
10:20 AM 84.2 °F - 46.4 °F 27% 29.95 in 10.0 mi WNW 4.6 mph - N/A   Clear
10:40 AM 84.2 °F - 46.4 °F 27% 29.95 in 10.0 mi Calm Calm - N/A   Clear
11:00 AM 86.0 °F - 48.2 °F 27% 29.95 in 10.0 mi WSW 3.5 mph - N/A   Clear
11:20 AM 84.2 °F - 48.2 °F 29% 29.95 in 10.0 mi West 4.6 mph - N/A   Clear
11:40 AM 86.0 °F - 46.4 °F 25% 29.95 in 10.0 mi Calm Calm - N/A   Clear
12:00 PM 86.0 °F - 48.2 °F 27% 29.95 in 10.0 mi WNW 4.6 mph - N/A   Clear
12:20 PM 87.8 °F - 48.2 °F 25% 29.95 in 10.0 mi NW 4.6 mph - N/A   Clear
12:40 PM 89.6 °F - 50.0 °F 26% 29.94 in 10.0 mi Calm Calm - N/A   Clear
1:00 PM 89.6 °F - 50.0 °F 26% 29.93 in 10.0 mi West 4.6 mph - N/A   Clear
1:20 PM 89.6 °F - 48.2 °F 24% 29.93 in 10.0 mi NNW 4.6 mph - N/A   Clear
1:40 PM 91.4 °F - 50.0 °F 24% 29.93 in 10.0 mi SW 5.8 mph - N/A   Clear
2:00 PM 91.4 °F - 48.2 °F 23% 29.93 in 10.0 mi WNW 5.8 mph - N/A   Clear
2:20 PM 91.4 °F - 48.2 °F 23% 29.92 in 10.0 mi West 4.6 mph - N/A   Clear
2:40 PM 91.4 °F - 48.2 °F 23% 29.92 in 10.0 mi West 6.9 mph - N/A   Clear
3:00 PM 91.4 °F - 48.2 °F 23% 29.91 in 10.0 mi WNW 6.9 mph - N/A   Clear
3:20 PM 93.2 °F - 48.2 °F 21% 29.91 in 10.0 mi WNW 4.6 mph - N/A   Clear
3:40 PM 93.2 °F - 48.2 °F 21% 29.90 in 10.0 mi SW 4.6 mph - N/A   Clear
4:00 PM 93.2 °F - 48.2 °F 21% 29.90 in 10.0 mi WNW 5.8 mph - N/A   Clear
4:20 PM 93.2 °F - 46.4 °F 20% 29.89 in 10.0 mi West 3.5 mph - N/A   Clear
4:40 PM 93.2 °F - 46.4 °F 20% 29.89 in 10.0 mi Calm Calm - N/A   Clear
5:00 PM 93.2 °F - 48.2 °F 21% 29.89 in 10.0 mi West 6.9 mph - N/A   Clear
5:20 PM 93.2 °F - 46.4 °F 20% 29.88 in 10.0 mi NW 5.8 mph - N/A   Clear
5:40 PM 93.2 °F - 46.4 °F 20% 29.88 in 10.0 mi Calm Calm - N/A   Clear
6:00 PM 91.4 °F - 48.2 °F 23% 29.88 in 10.0 mi WSW 4.6 mph - N/A   Clear
6:20 PM 91.4 °F - 50.0 °F 24% 29.87 in 10.0 mi Calm Calm - N/A   Clear
6:40 PM 91.4 °F - 50.0 °F 24% 29.87 in 10.0 mi West 4.6 mph - N/A   Clear
7:00 PM 89.6 °F - 50.0 °F 26% 29.87 in 10.0 mi WSW 3.5 mph - N/A   Clear
7:20 PM 89.6 °F - 50.0 °F 26% 29.87 in 10.0 mi WSW 3.5 mph - N/A   Clear
7:40 PM 87.8 °F - 50.0 °F 27% 29.88 in 10.0 mi Calm Calm - N/A   Clear
8:00 PM 86.0 °F 84.2 °F 53.6 °F 33% 29.88 in 10.0 mi Calm Calm - N/A   Clear
8:20 PM 84.2 °F - 50.0 °F 30% 29.88 in 10.0 mi Calm Calm - N/A   Clear
8:40 PM 82.4 °F - 50.0 °F 32% 29.88 in 10.0 mi Calm Calm - N/A   Clear
9:00 PM 82.4 °F - 50.0 °F 32% 29.88 in 10.0 mi Calm Calm - N/A   Clear
9:20 PM 82.4 °F - 50.0 °F 32% 29.89 in 10.0 mi Calm Calm - N/A   Clear
9:40 PM 82.4 °F - 48.2 °F 30% 29.89 in 10.0 mi Calm Calm - N/A   Clear
10:00 PM 82.4 °F - 48.2 °F 30% 29.89 in 10.0 mi Calm Calm - N/A   Clear
10:20 PM 80.6 °F - 48.2 °F 32% 29.90 in 10.0 mi Calm Calm - N/A   Clear
10:40 PM 77.0 °F - 50.0 °F 39% 29.90 in 10.0 mi SE 3.5 mph - N/A   Clear
11:00 PM 77.0 °F - 51.8 °F 41% 29.91 in 10.0 mi SE 3.5 mph - N/A   Clear
11:20 PM 77.0 °F - 51.8 °F 41% 29.91 in 10.0 mi SE 3.5 mph - N/A   Clear
11:40 PM 77.0 °F - 51.8 °F 41% 29.91 in 10.0 mi ESE 3.5 mph - N/A   Clear